COSMOS 1953

Last updated on Mon Sep 21 2026 00:02:08 GMT+0000 (Coordinated Universal Time)

1 19210U 88050A 26263.46980711 .00004579 00000+0 15092-3 0 9993 2 19210 82.5083 321.8700 0011490 148.3843 211.8091 15.31126163 67563
UTC large
Height (km)
Speed (km/s)
/
Latitude / Longitude
Inclination (degrees)
Orbital Period (minutes)
Azimuth
Elevation
Range (km)
Doppler Factor

Next 0 passes for location: London (51.5072 / 0.1276)

No passes found over London.
COSMOS 1953